Stations météo

Publicité
Melun, France (7153): Température de l'air & dewpoint: 28.05.2020 02:00:00 - 03.06.2020 02:00:00 (CEST)Melun, France (7153): Température de l'air 5cm: 28.05.2020 02:00:00 - 03.06.2020 02:00:00 (CEST)Melun, France (7153): Température de l'air -20cm & Température de l'air -100cm: 28.05.2020 02:00:00 - 03.06.2020 02:00:00 (CEST)Melun, France (7153): Vitesse du vent & gusts: 28.05.2020 02:00:00 - 03.06.2020 02:00:00 (CEST)Melun, France (7153): Direction du vent: 28.05.2020 02:00:00 - 03.06.2020 02:00:00 (CEST)Melun, France (7153): reduced air pressure: 28.05.2020 02:00:00 - 03.06.2020 02:00:00 (CEST)Melun, France (7153): visibility: 28.05.2020 02:00:00 - 03.06.2020 02:00:00 (CEST)Melun, France (7153): Ensoleillement: 28.05.2020 02:00:00 - 03.06.2020 02:00:00 (CEST)Melun, France (7153): Quantités de précipitations: 28.05.2020 02:00:00 - 03.06.2020 02:00:00 (CEST)
Date & Time tt [°C] td [°C] tt 5cm [°C] tt -20cm [°C] tt -100cm [°C] ff [km/h] ff [knt] fx [km/h] fx [knt] dd ppp [hPa] vv [km] sd [min] rr [mm]
03.06.2020 02:00:00 15,2 10,0 - - - 4 2 8 4 NE 1011,0 20 - -
03.06.2020 01:00:00 16,2 10,3 9,7 18,9 14,7 2 1 10 5 NNE 1011,7 20 0 0,0
03.06.2020 00:00:00 17,2 10,3 10,3 18,9 14,8 5 3 10 5 ENE 1011,8 20 0 0,0
02.06.2020 23:00:00 19,3 10,0 11,4 19,0 14,7 6 3 12 7 NNE 1012,3 19 0 0,0
02.06.2020 22:00:00 20,9 10,1 12,8 19,0 14,7 6 3 11 6 N 1012,2 20 7 0,0
02.06.2020 21:00:00 24,4 10,3 17,3 18,9 14,7 7 4 11 6 NNE 1012,3 20 50 0,0
02.06.2020 20:00:00 27,6 11,2 26,0 18,8 14,8 4 2 16 9 NNE 1012,4 19 60 0,0
02.06.2020 19:00:00 28,1 7,9 33,2 18,6 14,7 6 3 20 11 N 1012,8 20 60 0,0
02.06.2020 18:00:00 29,1 7,6 34,6 18,3 14,7 5 3 13 7 NNW 1013,1 19 60 0,0
02.06.2020 17:00:00 28,3 8,0 36,9 18,0 14,7 4 2 16 9 N 1013,9 20 60 0,0
02.06.2020 16:00:00 28,4 9,6 37,8 17,7 14,7 5 3 29 16 NNE 1014,6 20 60 0,0
02.06.2020 15:00:00 28,0 8,8 37,0 17,4 14,7 6 4 24 13 ESE 1015,2 20 60 0,0
02.06.2020 14:00:00 28,0 10,2 36,5 17,2 14,7 5 3 22 12 ESE 1015,8 20 60 0,0
02.06.2020 13:00:00 27,0 9,8 35,7 17,0 14,7 7 4 22 12 ENE 1016,3 19 60 0,0
02.06.2020 12:00:00 26,4 9,7 35,2 16,9 14,7 7 4 20 11 E 1016,7 19 60 0,0
02.06.2020 11:00:00 25,0 13,2 31,7 16,9 14,7 5 3 11 6 E 1017,1 17 60 0,0
02.06.2020 10:00:00 22,5 12,4 27,9 16,9 14,7 4 2 11 6 ESE 1017,4 14 60 0,0
02.06.2020 09:00:00 20,2 11,7 21,7 17,0 14,7 6 4 16 9 E 1017,4 20 60 0,0
02.06.2020 08:00:00 16,5 11,8 14,1 17,1 14,7 9 5 16 9 N 1017,6 20 60 0,0
02.06.2020 07:00:00 14,4 11,2 5,8 17,2 14,7 12 7 17 9 N 1017,8 17 0 0,0
02.06.2020 06:00:00 12,3 10,2 5,6 17,4 14,7 6 3 9 5 NNW 1017,6 20 0 0,0
02.06.2020 05:00:00 12,7 10,2 5,6 17,5 14,7 6 3 8 4 NNW 1017,4 20 0 0,0
02.06.2020 04:00:00 12,6 10,0 5,9 17,7 14,7 4 2 8 4 NW 1017,5 20 0 0,0
02.06.2020 03:00:00 12,6 10,3 6,3 17,8 14,7 2 1 5 3 NNE 1017,5 16 0 0,0
02.06.2020 02:00:00 13,1 9,7 6,4 17,9 14,7 0 0 6 4 N 1017,8 20 0 0,0
02.06.2020 01:00:00 13,7 10,5 6,5 18,0 14,7 3 2 6 3 NNW 1017,9 20 0 0,0
02.06.2020 00:00:00 14,8 9,6 7,2 18,1 14,7 3 1 9 5 N 1017,9 20 0 0,0
01.06.2020 23:00:00 17,0 10,1 8,7 18,1 14,7 5 3 10 5 N 1017,6 20 0 0,0
01.06.2020 22:00:00 18,8 11,1 10,4 18,1 14,7 6 4 9 5 NNE 1017,3 6 16 0,0
01.06.2020 21:00:00 23,1 12,4 15,6 18,1 14,7 3 2 14 7 ENE 1017,0 20 60 0,0
01.06.2020 20:00:00 24,8 11,0 25,5 18,0 14,7 8 4 22 12 ENE 1016,8 20 60 0,0
01.06.2020 19:00:00 25,2 9,1 29,7 17,8 14,7 14 7 24 13 NE 1016,6 20 60 0,0
01.06.2020 18:00:00 25,3 8,3 30,3 17,6 14,7 13 7 33 18 NE 1016,8 20 60 0,0
01.06.2020 17:00:00 25,4 9,2 32,0 17,4 14,7 12 7 27 15 NE 1017,0 20 60 0,0
01.06.2020 16:00:00 25,2 9,1 32,7 17,1 14,7 16 8 30 16 E 1017,5 19 60 0,0
01.06.2020 15:00:00 25,1 8,1 31,9 16,9 14,7 18 10 34 18 ENE 1017,8 20 60 0,0
01.06.2020 14:00:00 24,2 8,2 31,9 16,8 14,7 16 9 35 19 NE 1018,0 19 60 0,0
01.06.2020 13:00:00 24,0 8,4 30,7 16,6 14,6 21 11 34 19 E 1018,2 18 60 0,0
01.06.2020 12:00:00 22,4 7,8 29,2 16,6 14,7 16 9 29 16 ENE 1018,3 19 60 0,0
01.06.2020 11:00:00 20,8 8,8 26,0 16,5 14,6 11 6 23 12 NE 1018,4 20 60 0,0
01.06.2020 10:00:00 18,5 8,7 23,1 16,5 14,7 11 6 26 14 ENE 1018,8 20 60 0,0
01.06.2020 09:00:00 17,0 8,4 18,8 16,7 14,7 13 7 23 12 ENE 1018,6 20 60 0,0
01.06.2020 08:00:00 14,5 7,8 12,9 16,8 14,7 11 6 22 12 ENE 1018,4 20 60 0,0
01.06.2020 07:00:00 11,9 7,2 9,0 16,9 14,7 6 3 14 7 NE 1018,4 20 0 0,0
01.06.2020 06:00:00 10,4 6,5 9,1 17,0 14,6 9 5 16 9 NE 1018,0 20 0 0,0
01.06.2020 05:00:00 11,3 6,2 8,8 17,1 14,7 7 4 16 9 NNE 1018,1 20 0 0,0
01.06.2020 04:00:00 11,1 6,2 8,1 17,2 14,7 7 4 13 7 NNE 1018,2 20 0 0,0
01.06.2020 03:00:00 11,6 6,3 9,6 17,4 14,7 9 5 18 10 NE 1018,5 20 0 0,0
01.06.2020 02:00:00 12,0 6,5 9,4 17,5 14,7 11 6 16 9 NE 1018,7 20 0 0,0
01.06.2020 01:00:00 13,1 6,7 10,0 17,6 14,7 7 4 15 8 NNE 1018,8 20 0 0,0
01.06.2020 00:00:00 14,3 6,6 8,9 17,7 14,7 7 4 16 8 NNE 1018,5 20 0 0,0
31.05.2020 23:00:00 15,1 7,1 8,8 17,7 14,6 6 4 12 6 NNE 1018,5 20 0 0,0
31.05.2020 22:00:00 15,5 7,3 10,5 17,7 14,6 9 5 12 7 NE 1018,3 20 15 0,0
31.05.2020 21:00:00 19,0 8,6 16,0 17,7 14,6 6 3 21 11 NE 1017,9 20 57 0,0
31.05.2020 20:00:00 21,3 6,4 22,7 17,7 14,6 13 7 28 15 ENE 1017,6 20 60 0,0
31.05.2020 19:00:00 22,1 6,3 22,1 17,6 14,6 15 8 30 16 ENE 1017,5 20 52 0,0
31.05.2020 18:00:00 21,9 6,5 22,5 17,4 14,6 21 11 34 19 ENE 1017,9 20 55 0,0
31.05.2020 17:00:00 21,6 5,9 22,5 17,2 14,6 21 12 47 26 ENE 1018,2 20 45 0,0
31.05.2020 16:00:00 22,3 6,5 23,9 17,1 14,6 15 8 40 22 ENE 1018,3 20 49 0,0
31.05.2020 15:00:00 22,5 5,8 26,1 16,9 14,6 20 11 41 22 ENE 1018,5 19 57 0,0
31.05.2020 14:00:00 21,4 4,9 27,2 16,8 14,6 21 11 41 22 ENE 1018,9 20 60 0,0
31.05.2020 13:00:00 21,1 5,4 27,0 16,6 14,6 27 15 42 23 E 1019,2 20 60 0,0
31.05.2020 12:00:00 20,9 5,7 26,5 16,6 14,6 24 13 42 23 E 1019,4 20 60 0,0
31.05.2020 11:00:00 20,0 6,3 24,8 16,6 14,6 22 12 36 19 E 1019,6 20 60 0,0
31.05.2020 10:00:00 18,3 5,5 21,9 16,7 14,6 21 12 36 19 E 1019,8 20 60 0,0
31.05.2020 09:00:00 16,9 7,0 18,3 16,7 14,6 16 9 28 15 E 1019,7 20 60 0,0
31.05.2020 08:00:00 14,4 6,7 12,2 16,9 14,6 13 7 22 12 ENE 1019,6 17 58 0,0
31.05.2020 07:00:00 11,4 6,3 9,0 17,0 14,6 10 5 17 9 NE 1019,5 20 0 0,0
31.05.2020 06:00:00 10,3 6,1 7,6 17,1 14,6 12 6 17 9 NE 1019,3 20 0 0,0
31.05.2020 05:00:00 10,3 6,3 8,9 17,2 14,6 10 5 18 10 NE 1019,0 20 0 0,0
31.05.2020 04:00:00 10,8 6,5 7,6 17,4 14,6 10 6 16 9 NE 1019,0 20 0 0,0
31.05.2020 03:00:00 11,7 6,8 8,4 17,5 14,6 8 4 14 8 NE 1019,0 20 0 0,0
31.05.2020 02:00:00 12,2 7,1 7,2 17,7 14,6 10 5 15 8 NE 1019,0 20 0 0,0
31.05.2020 01:00:00 12,9 7,1 7,8 17,8 14,6 7 4 11 6 NE 1019,0 20 0 0,0
31.05.2020 00:00:00 14,1 6,9 8,4 17,8 14,6 9 5 12 7 NE 1018,9 20 0 0,0
30.05.2020 23:00:00 15,4 6,9 10,2 17,9 14,6 8 5 13 7 NE 1018,8 20 0 0,0
30.05.2020 22:00:00 17,1 7,4 11,5 17,9 14,6 8 4 13 7 ENE 1018,4 20 14 0,0
30.05.2020 21:00:00 19,8 8,5 17,4 17,9 14,6 8 4 25 13 ENE 1018,0 10 60 0,0
30.05.2020 20:00:00 22,3 6,9 23,6 17,8 14,6 15 8 33 18 ENE 1017,8 20 60 0,0
30.05.2020 19:00:00 23,2 6,9 26,9 17,7 14,6 18 10 36 19 ENE 1018,0 20 60 0,0
30.05.2020 18:00:00 23,6 7,2 28,3 17,5 14,6 17 9 35 19 ENE 1018,2 20 60 0,0
30.05.2020 17:00:00 23,7 6,9 29,2 17,3 14,6 17 9 34 18 ENE 1018,4 20 60 0,0
30.05.2020 16:00:00 23,9 7,1 30,0 17,1 14,6 16 9 34 19 E 1019,0 19 60 0,0
30.05.2020 15:00:00 23,3 7,4 30,3 16,9 14,6 16 8 38 21 ENE 1019,4 20 60 0,0
30.05.2020 14:00:00 23,1 6,8 29,8 16,8 14,6 23 12 39 21 E 1019,8 20 60 0,0
30.05.2020 13:00:00 22,6 6,8 28,1 16,6 14,6 20 11 40 21 ENE 1020,2 20 60 0,0
30.05.2020 12:00:00 21,9 6,9 28,0 16,6 14,5 19 11 39 21 ENE 1020,7 20 60 0,0
30.05.2020 11:00:00 20,8 7,8 26,7 16,5 14,5 18 10 28 15 E 1020,8 20 60 0,0
30.05.2020 10:00:00 19,1 8,1 23,4 16,6 14,5 13 7 23 12 ENE 1021,1 20 60 0,0
30.05.2020 09:00:00 16,7 7,1 18,9 16,7 14,5 14 8 24 13 ENE 1021,1 20 60 0,0
30.05.2020 08:00:00 14,2 7,5 11,3 16,8 14,5 9 5 16 9 NE 1021,0 20 58 0,0
30.05.2020 07:00:00 11,3 6,8 6,9 17,0 14,5 8 4 14 7 NE 1021,1 20 0 0,0
30.05.2020 06:00:00 9,9 6,2 6,8 17,1 14,5 10 5 14 8 NE 1021,0 20 0 0,0
30.05.2020 05:00:00 10,5 6,3 8,2 17,2 14,5 7 4 16 9 NE 1021,1 20 0 0,0
30.05.2020 04:00:00 10,9 6,4 8,1 17,3 14,5 9 5 15 8 NNE 1021,1 20 0 0,0
30.05.2020 03:00:00 12,3 6,3 8,2 17,4 14,5 7 4 15 8 NNE 1021,2 20 0 0,0
30.05.2020 02:00:00 13,3 6,4 6,8 17,6 14,5 8 4 14 8 NNE 1021,4 20 0 0,0
30.05.2020 01:00:00 13,3 6,4 5,7 17,7 14,5 8 4 13 7 NNE 1021,5 20 0 0,0
30.05.2020 00:00:00 13,3 6,6 5,7 17,8 14,5 6 3 12 6 NNE 1021,5 20 0 0,0
29.05.2020 23:00:00 15,6 6,8 8,2 17,9 14,5 7 4 12 6 N 1021,4 20 0 0,0
29.05.2020 22:00:00 16,3 7,5 11,1 17,9 14,5 7 4 11 6 NE 1021,2 20 13 0,0
29.05.2020 21:00:00 19,5 9,1 15,9 17,9 14,5 7 4 21 11 ENE 1020,9 20 60 0,0
29.05.2020 20:00:00 21,9 6,5 21,6 17,8 14,5 15 8 32 17 E 1021,0 20 60 0,0
29.05.2020 19:00:00 22,9 5,3 26,5 17,7 14,5 23 12 47 25 E 1021,1 20 60 0,0
29.05.2020 18:00:00 23,3 5,2 27,8 17,6 14,5 23 12 34 19 E 1021,3 20 60 0,0
29.05.2020 17:00:00 23,1 4,6 28,6 17,4 14,5 19 11 36 19 ENE 1021,8 20 60 0,0
29.05.2020 16:00:00 22,6 3,2 28,6 17,2 14,5 18 10 39 21 ENE 1022,5 20 60 0,0
29.05.2020 15:00:00 22,7 3,7 28,7 17,1 14,5 18 10 40 22 ENE 1023,1 20 60 0,0
29.05.2020 14:00:00 23,0 4,5 28,3 16,9 14,5 21 11 44 24 ENE 1023,7 20 60 0,0
29.05.2020 13:00:00 21,7 4,3 28,6 16,8 14,5 18 10 34 19 NE 1024,3 18 60 0,0
29.05.2020 12:00:00 21,3 4,4 27,8 16,8 14,5 20 11 37 20 ENE 1024,7 20 60 0,0
29.05.2020 11:00:00 19,9 6,2 25,7 16,8 14,5 10 5 29 15 NE 1025,1 20 60 0,0
29.05.2020 10:00:00 18,4 6,6 23,0 16,9 14,5 14 8 27 14 ENE 1025,4 20 60 0,0
29.05.2020 09:00:00 16,4 5,6 18,9 17,0 14,5 16 8 29 15 ENE 1025,5 20 60 0,0
29.05.2020 08:00:00 14,0 5,4 11,7 17,1 14,5 8 5 16 9 NE 1025,7 19 60 0,0
29.05.2020 07:00:00 11,4 4,8 7,2 17,2 14,5 7 4 14 8 NE 1025,7 20 0 0,0
29.05.2020 06:00:00 9,6 4,4 6,0 17,3 14,4 7 4 16 9 NNE 1025,6 20 0 0,0
29.05.2020 05:00:00 10,0 4,6 6,8 17,5 14,5 6 4 16 8 NE 1025,6 20 0 0,0
29.05.2020 04:00:00 11,4 4,8 9,5 17,6 14,4 11 6 18 10 NE 1025,8 20 0 0,0
29.05.2020 03:00:00 12,4 5,1 10,6 17,8 14,5 9 5 17 9 NE 1026,0 20 0 0,0
29.05.2020 02:00:00 13,9 5,3 11,8 17,9 14,4 7 4 16 9 NNE 1026,0 20 0 0,0
29.05.2020 01:00:00 14,6 5,4 10,7 18,0 14,4 9 5 17 9 NNE 1026,3 20 0 0,0
29.05.2020 00:00:00 15,7 5,9 12,6 18,1 14,4 9 5 20 11 NNE 1026,4 20 0 0,0
28.05.2020 23:00:00 16,5 6,6 10,7 18,2 14,5 11 6 22 12 N 1026,2 20 0 0,0
28.05.2020 22:00:00 17,5 6,7 10,7 18,2 14,4 8 4 13 7 N 1026,1 20 12 0,0
28.05.2020 21:00:00 20,7 5,9 17,4 18,2 14,4 6 3 20 11 NNE 1025,9 20 60 0,0
28.05.2020 20:00:00 22,8 6,1 22,2 18,1 14,4 10 6 25 14 NNE 1025,8 20 60 0,0
28.05.2020 19:00:00 23,6 7,6 26,0 18,0 14,4 13 7 29 15 NNE 1026,1 20 60 0,0
28.05.2020 18:00:00 24,0 8,8 28,0 17,8 14,4 10 6 27 15 NNE 1026,3 19 60 0,0
28.05.2020 17:00:00 24,1 8,5 29,6 17,7 14,4 16 9 29 16 ENE 1026,8 19 60 0,0
28.05.2020 16:00:00 24,0 10,3 30,3 17,4 14,4 16 8 29 16 NNE 1027,2 20 60 0,0
28.05.2020 15:00:00 23,6 9,2 30,2 17,2 14,4 15 8 29 15 N 1027,9 20 60 0,0
28.05.2020 14:00:00 23,0 11,7 30,4 17,1 14,4 16 9 32 18 N 1028,5 19 60 0,0
28.05.2020 13:00:00 21,7 10,2 29,6 17,0 14,4 11 6 26 14 NNE 1029,1 20 60 0,0
28.05.2020 12:00:00 20,8 10,9 28,3 16,9 14,4 12 7 23 12 N 1029,7 20 60 0,0
28.05.2020 11:00:00 19,2 10,7 26,1 16,9 14,4 10 5 21 12 N 1030,1 20 60 0,0
28.05.2020 10:00:00 17,5 10,1 22,6 16,9 14,4 11 6 19 11 N 1030,6 20 60 0,0
28.05.2020 09:00:00 15,5 8,9 19,1 17,0 14,4 11 6 22 12 N 1030,9 20 60 0,0
28.05.2020 08:00:00 14,1 8,3 12,7 17,0 14,4 11 6 22 12 N 1031,1 18 60 0,0
28.05.2020 07:00:00 12,3 7,6 7,9 17,2 14,4 8 4 15 8 NNW 1031,0 20 0 0,0
28.05.2020 06:00:00 11,6 6,9 9,0 17,3 14,3 10 5 19 11 NNW 1031,1 20 0 0,0
28.05.2020 05:00:00 12,1 7,0 9,0 17,4 14,4 13 7 19 10 N 1031,1 20 0 0,0
28.05.2020 04:00:00 13,2 6,5 9,7 17,6 14,4 14 8 18 10 N 1031,2 20 0 0,0
28.05.2020 03:00:00 14,3 7,3 11,5 17,7 14,4 10 5 23 12 NNW 1031,3 20 0 0,0
28.05.2020 02:00:00 15,2 7,5 13,4 17,8 14,4 13 7 23 12 N 1031,5 20 0 0,0

tt = Température de l'air
td = dewpoint
tt 5cm = Température de l'air 5cm
tt -20cm = Température de l'air -20cm
tt -100cm = Température de l'air -100cm
ff = Vitesse du vent
fx = gusts
dd = Direction du vent
ppp = reduced air pressure
vv = visibility
sd = Ensoleillement
rr = Quantités de précipitations

stations d'obs. à proximité